Dewpoint
54 53 54 53 53 53 53 53 53 53 54 54 54 55 55 55 55 56 56 56 56 56 56 56 56 56 55 55 56 56 56 54 52 44 44 34 46 58 66 64 61 72 75 69 69 67 65 66 65 65 63 62 61 61 63 63 62 61 58 56 55 55 54 53 49 43 43 46 52 55 56 56 57 59 61 61 61 61 62 61 62 64 63 63 65 66 66 67
55 54 53 53 53 53 53 52 53 53 53 54 54 55 55 55 55 55 55 56 56 55 56 56 56 56 55 55 55 56 55 53 46 44 42 43 60 62 69 68 65 76 72 68 66 65 64 64 63 63 62 60 62 59 62 60 63 59 57 57 54 56 54 57 53 52 49 48 52 55 56 56 57 59 61 58 60 60 60 61 61 63 64 66 67 67 66 67
54 54 53 52 53 53 53 52 53 53 53 54 54 54 55 55 55 55 55 56 55 55 55 55 55 55 55 55 56 57 55 49 45 34 30 64 62 64 68 70 69 76 64 65 65 65 64 64 63 62 60 59 60 58 60 59 62 60 58 56 57 58 58 57 54 54 54 53 50 55 56 57 58 59 61 57 60 60 58 60 61 61 63 65 65 66 66 66
53 53 53 53 53 53 53 53 53 53 53 54 54 55 55 54 55 54 55 55 55 55 55 55 55 55 55 55 56 55 52 50 23 19 28 64 72 65 68 69 75 72 63 65 65 64 65 63 63 61 59 60 60 60 58 59 60 61 60 57 58 56 58 58 57 54 51 46 48 55 56 57 59 60 59 59 59 59 58 60 61 61 63 64 65 65 65 64
53 53 53 53 53 53 53 53 53 53 53 53 54 54 55 55 55 54 54 55 55 55 55 54 55 55 55 56 56 55 49 21 11 18 49 70 72 70 67 68 76 66 64 66 65 65 63 62 61 60 57 57 61 61 58 59 60 61 60 60 59 58 56 54 57 55 49 52 54 56 55 55 59 60 58 59 56 56 58 60 61 62 64 64 64 65 64 63
53 53 53 53 52 53 53 53 53 54 53 53 54 54 54 54 54 55 54 54 55 54 54 55 54 55 55 56 55 55 29 8 17 27 70 71 72 70 67 72 75 65 66 65 63 63 62 61 60 58 56 58 59 59 60 60 61 57 59 61 61 60 59 60 56 53 52 53 54 55 56 58 58 58 59 58 55 56 59 61 62 64 64 65 65 65 64 64
53 53 52 52 52 52 52 53 53 53 53 53 54 54 54 54 54 54 54 54 54 55 55 55 55 54 55 56 53 53 33 14 27 36 53 74 74 72 69 75 72 64 64 63 62 61 61 61 58 56 56 57 59 59 60 61 62 60 58 58 58 60 59 59 58 56 50 50 51 54 57 57 57 56 59 59 57 58 58 61 62 65 65 66 65 65 64 64
52 52 52 52 52 52 52 52 53 53 53 53 54 54 54 54 54 54 54 54 54 55 55 54 54 54 55 51 47 30 33 21 27 24 50 75 73 69 71 71 64 63 61 61 61 60 60 60 57 58 57 56 58 60 60 59 61 60 59 60 59 58 56 55 54 53 52 51 50 56 55 55 57 56 58 58 59 58 59 61 64 65 65 65 65 65 64 64
52 52 52 52 52 52 52 53 52 53 53 54 54 54 54 54 54 53 54 55 55 55 55 55 54 54 55 54 35 9 6 20 22 30 68 67 68 68 67 62 62 61 59 61 61 60 59 59 57 57 54 57 57 59 60 58 54 59 59 60 57 55 54 53 52 51 50 49 49 52 53 54 57 58 56 57 59 59 61 62 64 65 65 65 65 64 64 64
52 52 52 52 52 52 52 52 53 53 54 54 54 54 54 54 53 54 55 55 55 55 54 54 54 55 52 48 42 10 12 18 36 54 65 68 68 66 61 59 60 57 58 60 60 60 57 58 57 58 58 58 58 56 58 58 52 54 55 56 55 54 53 52 51 50 50 49 48 48 49 52 57 56 52 57 59 61 61 63 64 64 64 64 64 64 64 64
52 52 51 52 52 51 52 52 53 53 53 54 53 53 54 54 54 54 54 54 55 55 55 55 55 54 49 53 22 10 18 36 62 64 66 68 66 61 57 57 57 54 56 58 57 59 57 58 58 57 55 54 57 56 56 55 55 53 51 48 47 46 46 45 44 45 46 42 46 46 45 51 56 56 52 57 59 60 61 63 64 64 64 64 64 64 65 65
51 51 51 51 51 52 52 53 53 53 54 53 53 53 54 54 53 53 54 55 56 55 54 55 55 53 52 48 29 9 30 56 62 63 64 65 62 58 57 56 53 52 54 54 56 57 56 58 59 56 45 49 46 46 48 53 52 50 46 39 39 38 36 33 31 29 34 32 37 43 44 49 54 53 55 58 60 60 61 62 63 63 64 64 65 64 65 64
51 51 51 51 51 51 52 52 53 53 53 53 53 53 54 53 53 54 56 58 57 55 55 55 55 52 49 25 32 30 26 34 30 35 56 52 56 53 56 56 52 53 53 53 54 56 55 58 57 55 48 45 45 37 41 43 45 42 40 39 37 35 34 34 31 27 27 27 39 42 35 41 50 52 55 59 59 60 61 62 63 63 64 64 65 64 65 65
51 51 51 51 51 51 52 52 53 53 53 52 53 53 52 52 53 56 57 57 55 54 56 57 53 52 48 17 15 27 29 27 28 28 40 33 32 47 56 55 53 49 47 45 47 52 49 57 56 53 40 42 39 40 39 36 34 38 37 36 35 33 33 26 25 28 27 34 42 39 31 31 45 49 55 59 60 59 60 61 62 63 63 64 64 64 65 65
50 51 51 51 51 51 52 52 52 52 52 53 52 52 51 51 54 57 55 55 55 55 56 56 53 48 29 21 29 31 51 32 26 21 24 27 26 44 53 54 52 49 45 40 44 47 40 52 52 46 42 36 37 36 33 31 32 34 37 35 33 32 32 30 29 26 29 35 41 38 33 33 36 45 55 59 59 59 59 61 62 62 63 63 64 64 64 65
51 52 52 51 52 52 52 52 52 52 53 52 51 51 51 53 57 56 56 55 56 57 55 52 52 51 40 28 23 54 40 28 24 26 32 25 28 29 50 54 52 50 45 42 43 44 39 48 49 45 38 33 35 31 27 23 19 25 30 35 35 27 30 34 23 23 25 32 39 38 31 30 33 40 56 59 59 59 59 60 61 62 62 63 63 64 64 65
51 51 51 52 52 51 53 52 52 52 52 51 50 50 51 54 57 57 57 57 56 55 53 41 52 56 16 16 28 22 26 36 42 36 32 30 28 44 53 53 50 48 45 41 42 42 40 38 37 36 34 29 27 27 21 19 17 22 29 33 35 36 33 32 29 25 27 28 29 39 35 32 31 46 56 58 59 58 58 60 61 62 62 63 63 63 64 64
51 51 51 51 52 52 52 51 52 52 51 50 50 50 49 54 57 58 57 55 55 54 56 54 49 40 28 34 20 21 32 34 39 41 33 31 35 49 49 46 49 46 42 40 39 37 39 36 34 28 30 28 27 22 16 12 13 17 26 29 32 29 28 30 27 24 20 31 26 27 32 32 33 48 55 57 58 58 58 59 60 61 62 63 63 63 64 64
51 51 51 51 51 52 51 52 52 51 50 51 50 50 52 54 54 54 54 55 42 38 32 44 42 27 18 21 28 31 29 35 39 39 37 30 31 40 40 43 47 41 38 37 36 33 36 34 34 31 26 26 24 22 15 22 16 16 24 28 34 34 34 31 26 22 21 21 21 22 24 24 28 43 53 57 58 58 58 60 60 61 61 63 63 63 63 64
51 51 51 52 51 52 52 52 51 50 50 48 43 44 41 29 32 36 46 43 29 31 31 39 44 43 40 36 34 33 33 35 30 35 37 34 28 29 35 42 42 39 34 29 34 32 34 29 29 27 25 26 24 24 19 27 25 29 28 31 32 34 32 24 24 24 24 20 21 20 22 22 27 35 51 56 58 58 58 59 60 61 61 62 62 62 63 64
52 51 51 51 52 51 52 51 50 50 51 47 42 33 25 27 23 22 29 30 30 29 28 28 35 38 37 33 32 31 28 27 35 36 39 37 25 26 26 34 34 32 32 31 32 34 31 27 27 28 29 30 27 27 24 23 27 28 29 28 28 28 29 28 27 25 23 27 28 30 26 26 27 32 48 55 57 57 57 58 60 60 61 62 62 62 63 64
51 51 52 51 51 51 51 51 50 50 50 45 40 30 32 34 34 35 33 28 29 29 29 29 29 30 32 33 34 33 32 28 27 27 30 31 23 21 22 24 28 25 32 31 32 33 31 27 26 30 31 31 31 28 26 22 21 23 23 27 30 31 32 32 31 30 27 24 26 23 22 21 23 23 44 55 56 57 57 57 59 60 61 62 62 63 63 64
51 51 51 51 51 51 51 50 49 49 44 41 38 34 34 36 38 39 37 33 31 31 29 28 28 28 28 30 30 32 29 28 25 25 27 33 23 25 23 21 23 24 31 29 28 30 29 29 30 30 31 30 31 30 28 24 21 19 19 22 23 25 30 30 21 20 19 19 20 25 21 23 28 43 42 52 55 57 58 58 58 60 61 61 61 62 63 63
51 51 51 51 51 50 50 49 49 44 41 40 39 35 37 38 40 40 36 30 25 24 29 29 28 27 28 27 29 30 27 27 27 25 30 33 28 29 21 19 21 23 27 29 28 28 27 24 32 31 31 29 28 28 28 27 23 21 19 18 17 24 28 31 30 22 21 20 19 22 24 25 29 26 41 51 54 56 58 58 59 60 60 61 62 62 63 63
51 51 51 51 50 50 49 49 41 39 41 38 38 36 38 40 42 41 38 33 30 29 30 28 28 27 26 29 31 28 28 27 26 25 34 33 30 27 24 20 20 19 23 30 29 28 28 28 31 31 31 30 29 28 27 26 22 23 24 21 19 25 28 25 21 23 26 27 25 24 27 28 39 40 39 54 54 56 58 58 58 59 60 61 61 61 62 63
51 51 52 51 51 50 49 36 36 41 40 32 33 36 38 40 42 43 38 25 19 20 23 21 28 22 26 27 29 28 27 24 27 26 34 32 33 30 24 20 20 16 21 29 28 29 29 28 29 30 30 30 29 27 27 26 20 21 22 26 25 26 27 27 25 27 31 31 27 23 25 24 35 29 37 49 53 54 57 58 57 59 60 59 60 61 61 62
51 51 51 51 50 49 41 31 40 42 31 31 35 37 39 41 46 43 31 21 21 23 21 21 21 20 24 25 27 26 20 21 27 27 32 36 31 31 25 23 20 21 23 28 27 25 29 27 26 29 30 29 28 28 27 27 22 20 26 25 25 26 26 28 28 29 31 30 28 24 26 26 26 27 32 44 51 54 55 57 57 57 59 58 59 59 61 61
51 51 51 50 49 49 45 44 43 39 34 35 37 38 41 44 46 44 28 18 16 26 19 20 19 21 20 27 27 23 16 21 22 25 27 33 32 28 27 23 20 18 24 25 19 27 29 27 27 26 28 28 27 27 27 28 24 22 25 25 25 25 26 27 28 29 30 27 27 25 23 25 25 34 40 45 43 51 53 55 57 57 58 58 59 59 60 61
51 51 51 50 49 48 48 44 43 39 36 37 39 40 42 45 44 31 21 9 23 16 19 15 19 16 23 27 26 26 22 16 6 21 26 33 31 28 27 25 22 21 24 21 15 26 28 28 28 27 25 25 27 27 26 27 25 24 23 24 25 25 25 26 26 25 25 23 25 26 21 24 24 26 28 48 40 41 49 54 55 57 57 58 58 59 59 61
51 50 50 50 47 44 44 44 43 42 40 40 40 42 44 45 36 19 19 14 25 17 19 17 17 16 22 23 23 24 23 20 13 21 26 29 31 28 26 26 22 22 22 23 19 23 24 31 32 27 26 25 26 26 25 26 26 22 21 20 20 19 20 25 24 25 25 22 24 22 21 21 20 24 25 37 39 41 43 51 55 57 57 57 58 58 59 60
51 50 50 50 44 42 44 37 33 36 38 42 42 44 45 33 24 20 19 15 10 20 20 20 20 22 19 18 13 17 20 19 15 24 25 25 29 27 23 24 23 20 21 22 20 21 22 26 27 26 27 26 25 23 24 25 24 22 20 18 19 24 25 25 24 28 20 18 22 19 18 18 18 24 24 30 40 39 41 42 50 53 56 57 58 57 58 59
50 49 49 49 46 46 41 33 35 39 42 42 44 43 27 18 18 18 17 23 7 20 19 22 22 25 24 21 17 11 13 13 14 23 23 22 26 24 24 25 23 22 19 20 19 22 20 22 25 24 31 25 24 23 22 24 23 22 21 21 18 25 22 15 22 15 16 15 17 13 13 17 18 22 24 26 30 37 40 35 40 49 53 56 57 57 58 58
49 48 48 47 44 42 44 44 43 44 43 42 45 39 21 18 18 17 16 16 16 25 23 26 24 25 25 22 16 17 14 10 13 19 22 21 25 24 24 24 24 23 21 20 19 19 18 21 22 23 24 27 24 21 20 21 21 20 20 22 20 18 15 15 16 20 17 17 13 10 19 14 21 20 25 20 33 35 41 44 42 46 52 56 57 58 57 58
48 48 46 44 43 43 43 46 46 44 38 44 41 26 24 15 15 36 14 18 22 27 27 25 26 26 25 18 17 21 10 13 9 14 19 19 23 23 23 24 23 22 22 21 19 18 18 18 19 21 20 25 23 22 21 21 21 20 19 19 20 20 15 14 14 12 8 13 15 19 11 14 13 14 27 21 25 36 37 40 46 48 51 55 55 56 56 57
47 46 43 42 42 41 42 43 44 38 39 41 30 26 18 17 18 17 23 28 27 27 25 26 25 22 19 15 21 23 23 16 21 14 13 15 19 22 22 23 23 23 21 19 20 21 18 19 21 21 22 24 22 23 22 21 21 21 20 19 21 21 24 9 17 12 13 9 14 20 12 23 13 37 37 36 27 28 33 39 44 47 48 50 53 54 55 56
45 42 42 40 40 39 39 36 36 37 40 34 28 25 19 19 15 26 28 32 31 30 27 24 21 19 18 18 22 23 25 21 20 16 8 10 18 19 25 23 22 23 20 19 22 18 20 18 19 21 23 23 22 23 22 21 20 21 20 19 19 21 18 21 23 23 20 18 15 25 19 18 27 25 20 26 31 30 30 33 36 41 43 50 50 51 54 54
42 42 38 39 40 38 36 36 37 38 42 25 23 22 25 21 28 30 34 30 30 32 28 20 19 20 22 21 22 23 22 22 22 18 9 19 19 26 27 26 28 29 30 29 21 20 20 21 18 19 20 22 22 23 22 21 23 19 19 20 20 21 20 23 15 28 16 10 21 14 12 15 15 11 37 26 26 27 29 30 31 40 44 45 46 50 53 53
41 40 41 42 38 35 35 38 38 41 40 26 21 28 32 29 32 33 33 29 29 30 30 24 20 22 21 23 22 22 22 20 20 22 15 19 20 26 27 26 27 29 30 33 26 23 20 18 17 19 20 22 23 23 21 22 20 20 19 20 19 20 21 31 24 17 15 15 15 19 17 14 16 18 25 31 27 28 33 36 33 36 39 41 43 46 51 52
41 40 30 27 31 33 37 41 39 42 36 26 26 22 29 32 33 33 32 28 30 31 26 24 22 23 26 23 23 22 22 20 22 22 19 21 19 25 25 27 28 30 31 33 25 24 19 17 19 18 18 19 22 22 21 20 19 17 18 19 22 20 21 26 22 27 23 16 16 14 16 12 21 17 16 17 33 34 32 35 34 34 37 41 43 42 46 51
38 34 26 29 32 35 40 40 43 39 36 22 30 32 31 29 31 32 31 28 26 28 28 28 29 27 26 25 23 23 24 24 23 22 22 25 20 25 25 26 28 28 33 34 28 32 20 27 20 15 16 18 20 22 20 21 19 17 17 17 17 18 18 20 20 18 18 20 20 17 13 20 27 21 17 19 23 35 35 38 41 39 38 37 41 44 47 50
39 37 31 34 32 37 39 34 29 30 32 29 28 28 29 29 31 30 29 28 26 27 27 28 27 26 26 25 23 26 24 24 23 22 23 25 25 23 25 25 27 31 34 34 32 33 26 22 21 17 15 16 17 20 20 20 20 19 17 17 16 17 17 17 18 16 16 17 20 16 14 24 15 28 23 21 23 22 37 39 41 39 36 42 42 43 47 49
35 27 23 31 35 38 35 25 28 30 28 27 27 28 28 34 29 30 30 28 28 26 27 26 25 25 25 24 25 25 25 24 27 25 27 25 26 25 25 27 28 31 37 36 36 32 39 37 23 19 16 15 15 18 19 20 21 20 19 17 17 17 18 19 19 20 16 15 18 21 17 21 28 34 32 28 26 19 22 32 37 36 39 37 42 40 45 52
34 31 35 38 38 38 34 25 29 30 28 28 30 28 28 28 29 31 30 31 28 27 26 25 25 24 25 26 26 25 26 27 28 28 28 27 26 26 26 27 27 36 37 33 37 33 41 36 25 22 24 20 18 16 17 17 16 17 18 19 16 15 16 17 19 28 18 20 18 19 21 23 24 45 38 31 40 29 36 33 39 33 35 40 41 42 46 51
35 34 35 37 39 36 28 26 26 27 29 29 29 27 27 27 30 31 32 32 28 28 27 25 25 26 26 28 27 26 27 26 27 26 26 28 27 28 27 27 28 33 34 31 33 32 28 35 32 25 25 23 18 18 15 16 15 15 16 18 18 16 17 16 22 35 21 18 16 18 17 20 28 48 41 36 31 27 27 26 33 37 41 39 41 44 47 55
37 36 38 37 36 33 28 29 28 28 28 28 28 25 26 26 30 31 33 32 32 31 29 28 27 27 27 28 27 27 27 26 28 25 26 26 26 27 27 27 28 33 35 33 40 34 33 33 34 22 22 21 21 19 18 17 17 22 23 16 18 17 18 18 19 29 20 29 27 19 18 29 30 40 36 36 35 40 37 31 28 33 42 40 42 43 53 55
33 29 29 30 32 32 31 31 31 30 29 29 28 25 28 27 29 30 32 33 36 33 32 28 30 28 27 28 26 26 27 25 25 26 27 25 26 26 27 27 27 33 38 38 37 34 35 37 36 35 32 29 32 35 31 31 28 23 20 25 20 15 16 19 23 27 19 34 26 26 28 26 23 20 33 30 35 33 32 35 35 36 37 42 51 53 52 57
38 30 29 29 29 33 29 30 30 32 29 31 28 28 27 28 28 28 32 32 35 35 33 31 31 30 30 28 28 26 27 24 27 27 26 27 28 26 27 27 28 35 38 32 34 32 35 30 33 34 33 31 26 28 26 28 27 27 26 25 27 24 18 17 19 22 43 25 21 29 40 27 23 26 35 42 38 43 41 43 41 42 43 43 46 55 56 49
31 30 33 37 31 27 27 27 30 32 32 31 29 31 28 27 26 27 28 31 31 35 34 32 32 33 31 30 29 26 28 27 29 27 27 29 27 27 24 27 27 33 32 25 27 30 30 26 31 26 24 24 25 25 27 28 29 29 28 27 27 28 29 24 21 32 31 21 20 36 46 36 29 19 19 32 42 43 33 39 39 37 31 43 50 44 41 40
36 35 34 38 32 31 32 31 33 32 31 29 32 29 28 26 25 28 28 28 29 31 32 29 32 33 33 32 31 29 30 25 25 31 30 29 28 28 25 26 27 27 26 25 25 33 31 27 32 24 23 23 23 23 27 28 28 27 27 27 27 26 27 27 27 22 21 31 30 28 46 32 23 20 18 18 39 33 36 39 35 37 28 49 46 48 38 38
35 34 35 35 35 32 31 32 33 32 28 31 28 28 29 27 26 27 29 29 27 29 32 29 30 32 33 32 32 29 29 30 30 28 31 31 29 30 28 27 27 27 27 25 26 30 26 25 29 21 24 22 22 24 27 26 26 25 25 25 25 26 26 27 26 26 27 22 19 19 39 38 29 36 27 23 34 37 34 26 20 32 35 31 35 32 33 37
39 42 42 36 33 31 33 32 31 31 29 28 28 28 29 27 28 30 29 30 30 30 31 29 30 31 32 32 31 30 31 32 32 31 31 31 29 30 28 28 28 28 28 26 29 29 26 23 26 26 22 21 23 23 23 24 24 24 25 25 25 26 26 25 27 26 26 29 29 23 27 31 35 35 32 36 36 39 35 39 37 39 29 37 41 37 40 50
44 47 44 39 32 35 31 31 32 31 25 28 31 29 29 29 30 31 29 30 33 33 32 32 31 32 31 31 30 31 32 31 31 31 32 32 31 31 31 30 29 29 28 28 30 27 28 28 23 21 21 22 22 21 22 24 23 19 19 19 21 22 24 24 25 27 25 24 25 26 26 29 32 38 35 35 28 30 35 34 40 41 49 39 40 42 39 41